• In Germany
  • List of Countries
  • For 7 days
  • Water Temperature
  • Satellite Maps
  • Weather Map
  • Weather Widgets
  • user-avatar
    Login

    Hourly Weather Arkadia

    Today, 16 December, Saturday

    Time Temperature Precipitation Wind Pressure Humidity
    00:00 +5°C° 0 mm 3 mps 663 mmHg 90%
    01:00 +5°C° 0 mm 3 mps 663 mmHg 91%
    02:00 +5°C° 0 mm 3 mps 663 mmHg 92%
    03:00 +6°C° 0 mm 2 mps 663 mmHg 92%
    04:00 +6°C° 0 mm 2 mps 663 mmHg 92%
    05:00 +6°C° 0 mm 2 mps 662 mmHg 93%
    06:00 +6°C° 0 mm 2 mps 662 mmHg 93%
    07:00 +6°C° 0 mm 2 mps 662 mmHg 93%
    08:00 +7°C° 0 mm 3 mps 662 mmHg 86%
    09:00 +9°C° 0 mm 3 mps 663 mmHg 80%
    10:00 +10°C° 0 mm 3 mps 663 mmHg 73%
    11:00 +10°C° 0.2 mm 4 mps 663 mmHg 72%
    12:00 +11°C° 0.2 mm 4 mps 663 mmHg 70%
    13:00 +10°C° 0.2 mm 5 mps 662 mmHg 68%
    14:00 +10°C° 2.1 mm 4 mps 662 mmHg 75%
    15:00 +8°C° 2.1 mm 4 mps 662 mmHg 82%
    16:00 +8°C° 2.1 mm 3 mps 661 mmHg 89%
    17:00 +8°C° 0.6 mm 3 mps 661 mmHg 89%
    18:00 +8°C° 0.6 mm 3 mps 661 mmHg 90%
    19:00 +8°C° 0.6 mm 3 mps 661 mmHg 91%
    20:00 +8°C° 0.2 mm 3 mps 661 mmHg 91%
    21:00 +8°C° 0.2 mm 3 mps 661 mmHg 91%
    22:00 +8°C° 0.2 mm 3 mps 661 mmHg 91%
    23:00 +8°C° 0.3 mm 3 mps 661 mmHg 91%

    Tomorrow, 17 December, Sunday

    Time Temperature Precipitation Wind Pressure Humidity
    00:00 +8°C° 0.3 mm 3 mps 661 mmHg 91%
    01:00 +8°C° 0.3 mm 3 mps 660 mmHg 90%
    02:00 +8°C° 0.5 mm 3 mps 660 mmHg 91%
    03:00 +7°C° 0.5 mm 2 mps 660 mmHg 92%
    04:00 +7°C° 0.5 mm 2 mps 660 mmHg 93%
    05:00 +7°C° 0.2 mm 2 mps 660 mmHg 93%
    06:00 +7°C° 0.2 mm 2 mps 660 mmHg 94%
    07:00 +7°C° 0.2 mm 2 mps 660 mmHg 94%
    08:00 +7°C° 0.1 mm 2 mps 661 mmHg 88%
    09:00 +8°C° 0.1 mm 2 mps 662 mmHg 83%
    10:00 +9°C° 0.1 mm 3 mps 662 mmHg 77%
    11:00 +9°C° 0.1 mm 3 mps 662 mmHg 75%
    12:00 +9°C° 0.1 mm 3 mps 662 mmHg 72%
    13:00 +9°C° 0.1 mm 3 mps 662 mmHg 70%
    14:00 +8°C° 0 mm 3 mps 662 mmHg 72%
    15:00 +7°C° 0 mm 3 mps 662 mmHg 74%
    16:00 +5°C° 0 mm 3 mps 662 mmHg 76%
    17:00 +5°C° 0 mm 2 mps 663 mmHg 78%
    18:00 +5°C° 0 mm 2 mps 663 mmHg 80%
    19:00 +4°C° 0 mm 2 mps 663 mmHg 83%
    20:00 +3°C° 0 mm 2 mps 663 mmHg 83%
    21:00 +3°C° 0 mm 2 mps 664 mmHg 84%
    22:00 +2°C° 0 mm 2 mps 664 mmHg 85%
    23:00 +2°C° 0 mm 2 mps 664 mmHg 86%

    Day after tomorrow, 18 December, Monday

    Time Temperature Precipitation Wind Pressure Humidity
    00:00 +2°C° 0 mm 2 mps 664 mmHg 86%
    01:00 +2°C° 0 mm 2 mps 664 mmHg 87%
    02:00 +1°C° 0.1 mm 2 mps 663 mmHg 86%
    03:00 +1°C° 0.1 mm 2 mps 663 mmHg 86%
    04:00 +1°C° 0.1 mm 2 mps 663 mmHg 85%
    05:00 +1°C° 0 mm 2 mps 663 mmHg 85%
    06:00 +1°C° 0 mm 2 mps 664 mmHg 84%
    07:00 +1°C° 0 mm 2 mps 664 mmHg 84%
    08:00 +4°C° 0.1 mm 1 mps 664 mmHg 78%
    09:00 +5°C° 0.1 mm 1 mps 665 mmHg 72%
    10:00 +6°C° 0.1 mm 1 mps 665 mmHg 66%
    11:00 +6°C° 0.2 mm 1 mps 665 mmHg 65%
    12:00 +6°C° 0.2 mm 1 mps 665 mmHg 65%
    13:00 +6°C° 0.2 mm 2 mps 664 mmHg 64%
    14:00 +5°C° 0.3 mm 2 mps 664 mmHg 68%
    15:00 +4°C° 0.3 mm 2 mps 664 mmHg 72%
    16:00 +3°C° 0.3 mm 2 mps 664 mmHg 76%
    17:00 +3°C° 0.2 mm 2 mps 664 mmHg 79%
    18:00 +2°C° 0.2 mm 2 mps 664 mmHg 81%
    19:00 +2°C° 0.2 mm 2 mps 664 mmHg 84%
    20:00 +1°C° 0 mm 2 mps 664 mmHg 84%
    21:00 +1°C° 0 mm 2 mps 665 mmHg 85%
    22:00 -1°C° 0 mm 2 mps 665 mmHg 85%
    23:00 -1°C° 0 mm 2 mps 665 mmHg 85%

    19 December, Tuesday

    Time Temperature Precipitation Wind Pressure Humidity
    00:00 -2°C° 0 mm 2 mps 665 mmHg 85%
    01:00 -2°C° 0 mm 2 mps 665 mmHg 85%
    02:00 -2°C° 0 mm 2 mps 665 mmHg 85%
    03:00 -3°C° 0 mm 2 mps 665 mmHg 85%
    04:00 -3°C° 0 mm 2 mps 665 mmHg 84%
    05:00 -3°C° 0 mm 2 mps 666 mmHg 84%
    06:00 -1°C° 0 mm 1 mps 666 mmHg 83%
    07:00 -1°C° 0 mm 1 mps 666 mmHg 83%
    08:00 0°C° 0 mm 1 mps 667 mmHg 76%
    09:00 +2°C° 0 mm 1 mps 668 mmHg 69%
    10:00 +4°C° 0 mm 1 mps 669 mmHg 62%
    11:00 +4°C° 0 mm 1 mps 669 mmHg 59%
    12:00 +4°C° 0 mm 1 mps 669 mmHg 57%
    13:00 +5°C° 0 mm 1 mps 669 mmHg 55%
    14:00 +4°C° 0 mm 1 mps 668 mmHg 58%
    15:00 +3°C° 0 mm 1 mps 668 mmHg 62%
    16:00 +2°C° 0 mm 1 mps 668 mmHg 66%
    17:00 +2°C° 0 mm 1 mps 668 mmHg 70%
    18:00 +1°C° 0 mm 1 mps 668 mmHg 74%
    19:00 0°C° 0 mm 1 mps 668 mmHg 77%
    20:00 0°C° 0 mm 1 mps 668 mmHg 79%
    21:00 0°C° 0 mm 1 mps 668 mmHg 81%
    22:00 -1°C° 0 mm 1 mps 669 mmHg 83%
    23:00 -1°C° 0 mm 1 mps 668 mmHg 84%

    20 December, Wednesday

    Time Temperature Precipitation Wind Pressure Humidity
    00:00 -1°C° 0 mm 1 mps 668 mmHg 84%
    01:00 -3°C° 0 mm 2 mps 668 mmHg 85%
    02:00 -3°C° 0 mm 2 mps 668 mmHg 85%
    03:00 -3°C° 0 mm 2 mps 668 mmHg 86%
    04:00 -3°C° 0 mm 2 mps 668 mmHg 86%
    05:00 -3°C° 0 mm 2 mps 668 mmHg 86%
    06:00 -3°C° 0 mm 2 mps 669 mmHg 86%
    07:00 -4°C° 0 mm 2 mps 669 mmHg 87%
    08:00 -2°C° 0 mm 2 mps 669 mmHg 79%
    09:00 -1°C° 0 mm 2 mps 670 mmHg 71%
    10:00 +2°C° 0 mm 2 mps 671 mmHg 63%
    11:00 +2°C° 0 mm 2 mps 671 mmHg 62%
    12:00 +2°C° 0 mm 2 mps 671 mmHg 60%
    13:00 +3°C° 0 mm 2 mps 671 mmHg 59%
    14:00 +2°C° 0 mm 2 mps 671 mmHg 63%
    15:00 +1°C° 0 mm 2 mps 670 mmHg 67%
    16:00 -1°C° 0 mm 2 mps 670 mmHg 70%
    17:00 -1°C° 0 mm 2 mps 670 mmHg 74%
    18:00 -2°C° 0 mm 2 mps 670 mmHg 78%
    19:00 -3°C° 0 mm 2 mps 671 mmHg 82%
    20:00 -3°C° 0 mm 2 mps 671 mmHg 83%
    21:00 -3°C° 0 mm 2 mps 671 mmHg 84%
    22:00 -4°C° 0 mm 2 mps 671 mmHg 85%
    23:00 -2°C° 0 mm 1 mps 671 mmHg 85%

    21 December, Thursday

    Time Temperature Precipitation Wind Pressure Humidity
    00:00 -2°C° 0 mm 1 mps 671 mmHg 85%
    01:00 -2°C° 0 mm 1 mps 671 mmHg 85%
    02:00 -2°C° 0 mm 1 mps 670 mmHg 84%
    03:00 -3°C° 0 mm 1 mps 670 mmHg 83%
    04:00 -3°C° 0 mm 1 mps 670 mmHg 82%
    05:00 -3°C° 0 mm 1 mps 670 mmHg 80%
    06:00 -3°C° 0 mm 1 mps 670 mmHg 77%
    07:00 -3°C° 0 mm 1 mps 671 mmHg 75%
    08:00 -1°C° 0 mm 1 mps 671 mmHg 65%
    09:00 +1°C° 0 mm 1 mps 672 mmHg 54%
    10:00 +3°C° 0 mm 1 mps 673 mmHg 44%
    11:00 +4°C° 0 mm 1 mps 673 mmHg 42%
    12:00 +4°C° 0 mm 1 mps 672 mmHg 40%
    13:00 +5°C° 0 mm 1 mps 672 mmHg 38%
    14:00 +4°C° 0 mm 1 mps 672 mmHg 43%
    15:00 +3°C° 0 mm 1 mps 671 mmHg 49%
    16:00 +2°C° 0 mm 1 mps 671 mmHg 55%
    17:00 +1°C° 0 mm 1 mps 671 mmHg 56%
    18:00 0°C° 0 mm 1 mps 671 mmHg 58%
    19:00 0°C° 0 mm 1 mps 671 mmHg 59%
    20:00 0°C° 0 mm 1 mps 671 mmHg 57%
    21:00 0°C° 0 mm 1 mps 671 mmHg 56%
    22:00 0°C° 0 mm 1 mps 671 mmHg 54%
    23:00 0°C° 0 mm 1 mps 670 mmHg 52%
    Show more